Kosmos-2492

operational
NORAD ID: 39620 Int'l Des: 2014-012 Owner: VVKO/IACG Country: RU
MEOCIRCULAR

Kosmos-2492について

説明を読み込み中...

リアルタイム位置

3D地球を読み込み中...

次回通過

高度履歴

Altitude vs Time

uPlot chart will show altitude changes over time

軌道要素

1 39620U 14012A 25303.40103501 -.00000004 00000-0 00000-0 0 9990
2 39620 65.4315 321.7414 0013548 307.5597 52.3701 2.13103213 90345
Epoch: Oct 30, 2025 • Age: 33 hours

現在のステータス

高度 19107.6 km
速度 3.96 km/s
衛星直下点 -34.39°S, 10.03°W
打ち上げ日 Mar 23, 2014
運用期間 11.6 years
タイプ other

技術仕様

分類 Payload
質量 1450.00 kg
乾燥質量 1200.00 kg
総質量 1450.00 kg
長さ 4.00 m
直径 1.50 m
スパン 7.80 m
形状 Cyl + Ant + 2 Pan
製造者 RESH
バスタイプ Uragan
フェーズステータス In Orbit
所有者/国 VVKO/IACG/RU

大規模コンステレーション

Loading constellations...